| time (UTC) | temp F | wind direction | speed knots | gust knots | rain 1hr in | rain 24hr in | rain mn in | humidity % | barometer mb |
| 20260503212447 | 50 | 197 | 0.0 | 0.0 | 0.00 | 0.16 | 0.16 | 91 | 4089.1 |
| 20260503211944 | 50 | 197 | 0.9 | 0.9 | 0.00 | 0.16 | 0.16 | 91 | 4089.4 |
| 20260503211441 | 49 | 198 | 0.0 | 0.0 | 0.00 | 0.16 | 0.16 | 90 | 4089.1 |
| 20260503210936 | 52 | 164 | 0.9 | 1.7 | 0.00 | 0.16 | 0.16 | 89 | 4089.4 |
| 20260503210433 | 52 | 160 | 2.6 | 2.6 | 0.00 | 0.16 | 0.16 | 81 | 4089.1 |
| 20260503205928 | 51 | 162 | 2.6 | 2.6 | 0.00 | 0.16 | 0.16 | 86 | 4089.1 |
| 20260503205425 | 50 | 155 | 2.6 | 2.6 | 0.00 | 0.16 | 0.16 | 90 | 4089.4 |
| 20260503204921 | 50 | 172 | 5.2 | 6.1 | 0.00 | 0.16 | 0.16 | 87 | 4089.8 |
| 20260503204419 | 50 | 195 | 0.9 | 0.9 | 0.00 | 0.16 | 0.16 | 89 | 4089.8 |
| 20260503203916 | 51 | 195 | 1.7 | 1.7 | 0.00 | 0.16 | 0.16 | 88 | 4089.8 |
| 20260503203413 | 50 | 166 | 0.9 | 1.7 | 0.00 | 0.16 | 0.16 | 91 | 4089.8 |
| 20260503202910 | 48 | 212 | 1.7 | 1.7 | 0.00 | 0.16 | 0.16 | 92 | 4089.8 |
| 20260503202408 | 49 | 198 | 0.9 | 0.9 | 0.00 | 0.16 | 0.16 | 90 | 4089.8 |
| 20260503201906 | 48 | 198 | 0.9 | 1.7 | 0.00 | 0.16 | 0.16 | 92 | 4090.1 |
| 20260503201403 | 48 | 173 | 1.7 | 1.7 | 0.00 | 0.16 | 0.16 | 92 | 4090.1 |
| 20260503200901 | 48 | 162 | 1.7 | 1.7 | 0.00 | 0.16 | 0.16 | 90 | 4090.1 |
| 20260503200356 | 45 | 162 | 1.7 | 1.7 | 0.00 | 0.16 | 0.16 | 96 | 4090.1 |
| 20260503195854 | 43 | 159 | 0.0 | 0.0 | 0.00 | 0.16 | 0.16 | 99 | 4090.5 |
| 20260503195350 | 43 | 160 | 1.7 | 1.7 | 0.00 | 0.16 | 0.16 | 98 | 4090.5 |
| 20260503194847 | 44 | 155 | 2.6 | 2.6 | 0.00 | 0.16 | 0.16 | 97 | 4090.5 |
| 20260503194343 | 44 | 152 | 3.5 | 4.3 | 0.00 | 0.16 | 0.16 | 98 | 4090.8 |
| 20260503193840 | 44 | 158 | 2.6 | 2.6 | 0.00 | 0.16 | 0.16 | 99 | 4090.8 |
| 20260503193336 | 45 | 168 | 5.2 | 5.2 | 0.00 | 0.16 | 0.16 | 97 | 4090.8 |
| 20260503192832 | 48 | 157 | 5.2 | 6.1 | 0.00 | 0.16 | 0.16 | 92 | 4090.8 |
| 20260503192327 | 48 | 216 | 2.6 | 2.6 | 0.00 | 0.16 | 0.16 | 94 | 4091.1 |
| 20260503191824 | 46 | 180 | 0.9 | 0.9 | 0.00 | 0.16 | 0.16 | 97 | 4090.8 |
| 20260503191321 | 47 | 173 | 2.6 | 2.6 | 0.00 | 0.16 | 0.16 | 95 | 4091.1 |
| 20260503190818 | 50 | 153 | 4.3 | 5.2 | 0.00 | 0.16 | 0.16 | 91 | 4091.1 |
| 20260503190315 | 50 | 235 | 1.7 | 2.6 | 0.00 | 0.16 | 0.16 | 95 | 4091.5 |
| 20260503185812 | 47 | 235 | 0.0 | 0.0 | 0.00 | 0.16 | 0.16 | 96 | 4091.5 |
| 20260503185307 | 46 | 235 | 0.9 | 1.7 | 0.00 | 0.16 | 0.16 | 96 | 4091.5 |
| 20260503184802 | 49 | 219 | 0.9 | 2.6 | 0.00 | 0.16 | 0.16 | 93 | 4091.5 |
| 20260503184258 | 50 | 201 | 0.9 | 0.9 | 0.00 | 0.16 | 0.16 | 92 | 4091.5 |
| 20260503183754 | 50 | 158 | 0.9 | 0.9 | 0.00 | 0.16 | 0.16 | 90 | 4091.5 |
| 20260503183252 | 50 | 159 | 0.9 | 0.9 | 0.00 | 0.16 | 0.16 | 91 | 4091.8 |
| 20260503182749 | 50 | 185 | 1.7 | 1.7 | 0.00 | 0.16 | 0.16 | 94 | 4091.8 |
| 20260503182248 | 50 | 181 | 2.6 | 2.6 | 0.00 | 0.16 | 0.16 | 92 | 4091.5 |
| 20260503181744 | 49 | 158 | 0.0 | 0.0 | 0.00 | 0.16 | 0.16 | 94 | 4091.5 |
| 20260503181242 | 48 | 145 | 0.0 | 0.9 | 0.00 | 0.16 | 0.16 | 95 | 4091.8 |
| 20260503180738 | 48 | 154 | 0.0 | 0.9 | 0.00 | 0.16 | 0.16 | 94 | 4091.8 |
| 20260503180236 | 49 | 153 | 0.9 | 0.9 | 0.00 | 0.16 | 0.16 | 93 | 4091.8 |
| 20260503175732 | 48 | 153 | 0.0 | 0.9 | 0.00 | 0.16 | 0.16 | 94 | 4091.8 |
| 20260503175231 | 48 | 153 | 0.9 | 1.7 | 0.00 | 0.16 | 0.16 | 94 | 4092.1 |
| 20260503174726 | 47 | 154 | 0.9 | 1.7 | 0.00 | 0.16 | 0.16 | 94 | 4091.8 |
| 20260503174224 | 46 | 154 | 1.7 | 1.7 | 0.00 | 0.16 | 0.16 | 96 | 4092.1 |
| 20260503173719 | 45 | 154 | 2.6 | 2.6 | 0.00 | 0.16 | 0.16 | 97 | 4092.1 |
| 20260503173215 | 45 | 151 | 2.6 | 2.6 | 0.00 | 0.16 | 0.16 | 96 | 4092.1 |
| 20260503172712 | 45 | 139 | 3.5 | 4.3 | 0.00 | 0.16 | 0.16 | 98 | 4092.1 |
| 20260503172209 | 45 | 149 | 2.6 | 2.6 | 0.00 | 0.16 | 0.16 | 97 | 4092.1 |
| 20260503171706 | 44 | 135 | 2.6 | 4.3 | 0.00 | 0.16 | 0.16 | 99 | 4092.5 |
| 20260503171203 | 43 | 139 | 2.6 | 2.6 | 0.00 | 0.16 | 0.16 | 99 | 4092.8 |
| 20260503170700 | 42 | 144 | 2.6 | 2.6 | 0.00 | 0.16 | 0.16 | 99 | 4092.5 |
| 20260503170157 | 42 | 142 | 3.5 | 4.3 | 0.00 | 0.16 | 0.16 | 99 | 4092.5 |
| 20260503160118 | 39 | 138 | 2.6 | 2.6 | 0.00 | 0.16 | 0.16 | 99 | 4093.2 |
| 20260503150543 | 37 | 153 | 0.0 | 0.0 | 0.02 | 0.12 | 0.12 | 99 | 4093.8 |
| 20260503130932 | 39 | 137 | 0.0 | 0.0 | 0.00 | 0.00 | 0.00 | 86 | 4094.5 |
| 20260503130431 | 38 | 137 | 0.0 | 0.0 | 0.00 | 0.00 | 0.00 | 82 | 4094.2 |
| 20260503110823 | 38 | 180 | 5.2 | 5.2 | 0.00 | 0.00 | 0.00 | 86 | 4094.5 |
| 20260503110320 | 38 | 168 | 4.3 | 5.2 | 0.00 | 0.00 | 0.00 | 90 | 4094.9 |
| 20260503100246 | 33 | 144 | 0.0 | 0.0 | 0.00 | 0.00 | 0.00 | 93 | 4095.2 |
| 20260503090206 | 36 | 139 | 0.9 | 0.9 | 0.00 | 0.00 | 0.00 | 91 | 4095.9 |
| 20260503081636 | 33 | 294 | 0.9 | 1.7 | 0.00 | 0.00 | 0.00 | 91 | 4096.5 |
| 20260503081132 | 33 | 298 | 0.0 | 0.0 | 0.00 | 0.00 | 0.00 | 93 | 4096.5 |
| 20260503080628 | 33 | 299 | 0.0 | 0.0 | 0.00 | 0.00 | 0.00 | 94 | 4097.0 |
| 20260503080126 | 33 | 300 | 0.0 | 0.0 | 0.00 | 0.00 | 0.00 | 94 | 4097.0 |
| 20260503072602 | 32 | 300 | 0.0 | 0.0 | 0.00 | 0.00 | 0.00 | 99 | 4097.3 |
| 20260503072100 | 32 | 300 | 0.0 | 0.0 | 0.00 | 0.00 | 0.00 | 99 | 4097.7 |
| 20260503071556 | 32 | 300 | 0.0 | 0.0 | 0.00 | 0.00 | 0.00 | 99 | 4097.3 |
| 20260503071053 | 32 | 300 | 0.0 | 0.0 | 0.00 | 0.00 | 0.00 | 99 | 4097.7 |
| 20260503070549 | 31 | 300 | 0.0 | 0.0 | 0.00 | 0.00 | 0.00 | 99 | 4097.7 |
| 20260503055003 | 32 | 301 | 0.9 | 0.9 | 0.00 | 0.00 | 0.00 | 99 | 4098.7 |
| 20260503054459 | 32 | 301 | 0.9 | 0.9 | 0.00 | 0.00 | 0.00 | 99 | 4098.7 |
| 20260503053957 | 31 | 301 | 0.0 | 0.9 | 0.00 | 0.00 | 0.00 | 99 | 4098.7 |
| 20260503053455 | 31 | 301 | 0.0 | 0.0 | 0.00 | 0.00 | 0.00 | 99 | 4098.7 |
| 20260503052951 | 31 | 301 | 0.9 | 0.9 | 0.00 | 0.00 | 0.00 | 99 | 4098.7 |
| 20260503052449 | 32 | 301 | 0.0 | 0.0 | 0.00 | 0.00 | 0.00 | 99 | 4098.7 |
| 20260503051945 | 32 | 301 | 0.9 | 0.9 | 0.00 | 0.00 | 0.00 | 98 | 4098.7 |
| 20260503051441 | 32 | 301 | 0.0 | 0.9 | 0.00 | 0.00 | 0.00 | 98 | 4099.0 |
| 20260503050938 | 32 | 301 | 0.0 | 0.0 | 0.00 | 0.00 | 0.00 | 98 | 4099.0 |
| 20260503050433 | 32 | 301 | 0.0 | 0.0 | 0.00 | 0.00 | 0.00 | 97 | 4099.0 |
| 20260503045932 | 32 | 301 | 0.9 | 0.9 | 0.00 | 0.00 | 0.00 | 97 | 4099.0 |
| 20260503045429 | 32 | 301 | 0.0 | 0.0 | 0.00 | 0.00 | 0.00 | 97 | 4099.0 |
| 20260503044926 | 31 | 301 | 0.0 | 0.0 | 0.00 | 0.00 | 0.00 | 96 | 4099.0 |
| 20260503044422 | 32 | 301 | 0.0 | 0.0 | 0.00 | 0.00 | 0.00 | 96 | 4099.0 |
| 20260503043920 | 32 | 301 | 0.0 | 0.0 | 0.00 | 0.00 | 0.00 | 96 | 4099.4 |
| 20260503043416 | 32 | 301 | 0.0 | 0.0 | 0.00 | 0.00 | 0.00 | 96 | 4099.0 |
| 20260503042913 | 32 | 301 | 0.0 | 0.0 | 0.00 | 0.00 | 0.00 | 96 | 4099.0 |
| 20260503042410 | 32 | 301 | 0.0 | 0.0 | 0.00 | 0.00 | 0.00 | 96 | 4099.4 |
| 20260503041906 | 33 | 301 | 0.0 | 0.0 | 0.00 | 0.00 | 0.00 | 95 | 4099.4 |
| 20260503041403 | 34 | 301 | 0.0 | 0.0 | 0.00 | 0.00 | 0.00 | 96 | 4099.4 |
| 20260503040900 | 33 | 301 | 0.0 | 0.0 | 0.00 | 0.00 | 0.00 | 96 | 4099.4 |
| 20260503040358 | 33 | 301 | 0.0 | 0.0 | 0.00 | 0.00 | 0.00 | 95 | 4099.0 |
| 20260503035854 | 33 | 301 | 0.0 | 0.0 | 0.00 | 0.00 | 0.00 | 95 | 4099.4 |
| 20260503035351 | 33 | 301 | 0.0 | 0.0 | 0.00 | 0.00 | 0.00 | 95 | 4099.4 |
| 20260503034849 | 33 | 301 | 0.0 | 0.0 | 0.00 | 0.00 | 0.00 | 95 | 4099.4 |
| 20260503034346 | 34 | 301 | 0.0 | 0.0 | 0.00 | 0.00 | 0.00 | 95 | 4099.7 |
| 20260503033843 | 34 | 301 | 0.0 | 0.0 | 0.00 | 0.00 | 0.00 | 94 | 4099.7 |
| 20260503033341 | 35 | 301 | 0.0 | 0.0 | 0.00 | 0.00 | 0.00 | 94 | 4099.7 |
| 20260503032838 | 35 | 300 | 0.0 | 0.0 | 0.00 | 0.00 | 0.00 | 94 | 4099.7 |
| 20260503032337 | 35 | 301 | 0.0 | 0.0 | 0.00 | 0.00 | 0.00 | 93 | 4099.7 |
| 20260503031834 | 35 | 301 | 0.0 | 0.0 | 0.00 | 0.00 | 0.00 | 92 | 4099.7 |
| 20260503031332 | 35 | 301 | 0.0 | 0.0 | 0.00 | 0.00 | 0.00 | 92 | 4100.0 |
| 20260503030828 | 35 | 301 | 0.0 | 0.0 | 0.00 | 0.00 | 0.00 | 93 | 4100.0 |
| 20260503030325 | 35 | 300 | 0.0 | 0.0 | 0.00 | 0.00 | 0.00 | 92 | 4100.0 |
| 20260503025821 | 36 | 301 | 0.0 | 0.0 | 0.00 | 0.00 | 0.00 | 92 | 4100.0 |
| 20260503025319 | 36 | 301 | 0.0 | 0.0 | 0.00 | 0.00 | 0.00 | 92 | 4100.0 |
| 20260503024816 | 36 | 301 | 0.0 | 0.0 | 0.00 | 0.00 | 0.00 | 92 | 4100.0 |
| 20260503024312 | 37 | 301 | 0.0 | 0.0 | 0.00 | 0.00 | 0.00 | 92 | 4100.0 |
| 20260503023809 | 37 | 300 | 0.0 | 0.0 | 0.00 | 0.00 | 0.00 | 91 | 4100.4 |
| 20260503023306 | 37 | 300 | 0.0 | 0.0 | 0.00 | 0.00 | 0.00 | 91 | 4100.4 |
| 20260503022802 | 37 | 301 | 0.9 | 0.9 | 0.00 | 0.00 | 0.00 | 90 | 4100.4 |
| 20260503022257 | 37 | 300 | 0.9 | 1.7 | 0.00 | 0.00 | 0.00 | 90 | 4100.4 |
| 20260503021754 | 37 | 300 | 0.9 | 0.9 | 0.00 | 0.00 | 0.00 | 89 | 4100.4 |
| 20260503021250 | 37 | 300 | 0.9 | 0.9 | 0.00 | 0.00 | 0.00 | 89 | 4100.4 |
| 20260503020748 | 37 | 300 | 0.0 | 0.0 | 0.00 | 0.00 | 0.00 | 89 | 4100.4 |
| 20260503020246 | 37 | 300 | 0.0 | 0.9 | 0.00 | 0.00 | 0.00 | 88 | 4100.4 |
| 20260503015741 | 38 | 300 | 0.9 | 0.9 | 0.00 | 0.00 | 0.00 | 87 | 4100.0 |
| 20260503015238 | 38 | 300 | 0.0 | 0.0 | 0.00 | 0.00 | 0.00 | 86 | 4100.4 |
| 20260503014734 | 38 | 300 | 0.9 | 0.9 | 0.00 | 0.00 | 0.00 | 86 | 4100.0 |
| 20260503014233 | 38 | 300 | 0.0 | 0.0 | 0.00 | 0.00 | 0.00 | 86 | 4100.4 |
| 20260503013729 | 38 | 300 | 0.0 | 0.0 | 0.00 | 0.00 | 0.00 | 86 | 4100.4 |
| 20260503013227 | 38 | 300 | 0.9 | 0.9 | 0.00 | 0.00 | 0.00 | 86 | 4100.0 |
| 20260503012724 | 38 | 300 | 0.0 | 0.0 | 0.00 | 0.00 | 0.00 | 85 | 4100.0 |
| 20260503012221 | 39 | 300 | 0.0 | 0.9 | 0.00 | 0.00 | 0.00 | 85 | 4100.0 |
| 20260503011718 | 39 | 291 | 0.9 | 0.9 | 0.00 | 0.00 | 0.00 | 85 | 4100.0 |
| 20260503011215 | 39 | 291 | 0.9 | 0.9 | 0.00 | 0.00 | 0.00 | 85 | 4100.0 |
| 20260503010711 | 39 | 291 | 0.0 | 0.0 | 0.00 | 0.00 | 0.00 | 85 | 4100.0 |
| 20260503010208 | 39 | 291 | 0.9 | 0.9 | 0.00 | 0.00 | 0.00 | 84 | 4100.0 |
| 20260503005706 | 40 | 291 | 0.0 | 0.0 | 0.00 | 0.00 | 0.00 | 83 | 4099.7 |
| 20260503005203 | 40 | 291 | 0.9 | 0.9 | 0.00 | 0.00 | 0.00 | 83 | 4099.7 |
| 20260503004658 | 41 | 289 | 0.9 | 0.9 | 0.00 | 0.00 | 0.00 | 83 | 4100.0 |
| 20260503004157 | 41 | 289 | 0.0 | 0.0 | 0.00 | 0.00 | 0.00 | 83 | 4100.0 |
| 20260503003654 | 41 | 289 | 0.0 | 0.0 | 0.00 | 0.00 | 0.00 | 82 | 4099.7 |
| 20260503003151 | 42 | 289 | 0.9 | 1.7 | 0.00 | 0.00 | 0.00 | 81 | 4100.0 |
| 20260503002647 | 42 | 289 | 0.0 | 0.0 | 0.00 | 0.00 | 0.00 | 80 | 4099.7 |
| 20260503002144 | 42 | 288 | 0.0 | 0.0 | 0.00 | 0.00 | 0.00 | 78 | 4099.7 |
| 20260503001640 | 43 | 289 | 0.0 | 0.9 | 0.00 | 0.00 | 0.00 | 79 | 4099.7 |
| 20260503001137 | 43 | 287 | 0.0 | 0.0 | 0.00 | 0.00 | 0.00 | 76 | 4100.0 |
| 20260503000635 | 43 | 287 | 0.0 | 0.0 | 0.00 | 0.00 | 0.00 | 75 | 4099.7 |
| 20260503000132 | 44 | 286 | 0.9 | 0.9 | 0.00 | 0.00 | 0.00 | 74 | 4099.7 |
| 20260502235629 | 44 | 279 | 0.9 | 1.7 | 0.00 | 0.00 | 0.00 | 72 | 4099.7 |
| 20260502235127 | 44 | 273 | 1.7 | 1.7 | 0.00 | 0.00 | 0.00 | 70 | 4100.0 |
| 20260502234622 | 45 | 264 | 1.7 | 1.7 | 0.00 | 0.00 | 0.00 | 68 | 4100.0 |
| 20260502234120 | 45 | 240 | 0.0 | 0.0 | 0.00 | 0.00 | 0.00 | 66 | 4099.7 |
| 20260502233616 | 44 | 242 | 0.9 | 0.9 | 0.00 | 0.00 | 0.00 | 68 | 4099.7 |
| 20260502233113 | 44 | 248 | 0.0 | 0.0 | 0.00 | 0.00 | 0.00 | 72 | 4100.0 |
| 20260502232608 | 44 | 240 | 0.0 | 0.0 | 0.00 | 0.00 | 0.00 | 73 | 4099.7 |
| 20260502232106 | 45 | 242 | 2.6 | 2.6 | 0.00 | 0.00 | 0.00 | 74 | 4100.0 |
| 20260502231603 | 47 | 269 | 0.0 | 0.0 | 0.00 | 0.00 | 0.00 | 60 | 4100.0 |
| 20260502231101 | 47 | 269 | 0.0 | 0.0 | 0.00 | 0.00 | 0.00 | 60 | 4100.0 |
| 20260502230559 | 47 | 269 | 0.0 | 0.0 | 0.00 | 0.00 | 0.00 | 65 | 4100.0 |
| 20260502230057 | 47 | 270 | 0.0 | 0.0 | 0.00 | 0.00 | 0.00 | 66 | 4100.0 |
| 20260502225552 | 47 | 270 | 0.0 | 0.0 | 0.00 | 0.00 | 0.00 | 66 | 4100.4 |
| 20260502225050 | 47 | 270 | 0.0 | 0.0 | 0.00 | 0.00 | 0.00 | 67 | 4100.4 |
| 20260502224545 | 48 | 268 | 0.0 | 0.0 | 0.00 | 0.00 | 0.00 | 66 | 4100.4 |
| 20260502224043 | 50 | 268 | 0.0 | 0.9 | 0.00 | 0.00 | 0.00 | 64 | 4100.4 |
| 20260502223540 | 50 | 261 | 0.0 | 0.0 | 0.00 | 0.00 | 0.00 | 64 | 4100.4 |
| 20260502223039 | 50 | 262 | 0.0 | 0.9 | 0.00 | 0.00 | 0.00 | 65 | 4100.4 |
| 20260502222536 | 49 | 260 | 0.0 | 0.0 | 0.00 | 0.00 | 0.00 | 62 | 4100.4 |
| 20260502222032 | 50 | 253 | 0.0 | 0.9 | 0.00 | 0.00 | 0.00 | 64 | 4100.4 |
| 20260502221527 | 50 | 253 | 0.0 | 0.9 | 0.00 | 0.00 | 0.00 | 64 | 4100.4 |
| 20260502221025 | 49 | 253 | 0.0 | 0.0 | 0.00 | 0.00 | 0.00 | 64 | 4100.4 |
| 20260502220521 | 49 | 253 | 0.0 | 0.0 | 0.00 | 0.00 | 0.00 | 66 | 4100.4 |
| 20260502220018 | 49 | 253 | 0.0 | 0.0 | 0.00 | 0.00 | 0.00 | 63 | 4100.4 |
| 20260502215515 | 50 | 249 | 0.9 | 0.9 | 0.00 | 0.00 | 0.00 | 63 | 4100.4 |
| 20260502215012 | 50 | 243 | 0.0 | 0.9 | 0.00 | 0.00 | 0.00 | 65 | 4100.7 |
| 20260502214509 | 50 | 243 | 0.9 | 0.9 | 0.00 | 0.00 | 0.00 | 67 | 4100.4 |
| 20260502214007 | 50 | 241 | 0.9 | 1.7 | 0.00 | 0.00 | 0.00 | 64 | 4100.4 |
| 20260502213503 | 51 | 238 | 0.9 | 0.9 | 0.00 | 0.00 | 0.00 | 58 | 4100.4 |
| 20260502213001 | 52 | 203 | 0.0 | 0.9 | 0.00 | 0.00 | 0.00 | 59 | 4100.7 |